www.pogodaiklimat.ru

Погода и климат >> Архив погоды >> Россия >> Татарстан >> Казань


АРХИВ ПОГОДЫ в Казани

Время (UTC), дата Ветер
(напр.,м/с)
 
Видим.   Явления Облачность Т
(С)
Тd
(С)
f
(%)
Тe
(С)
Тes
(С)
Комфортность P
(гПа)
Po
(гПа)
Тmin
(С)
Tmax
(С)
R
(мм)
R24
(мм)
S
(см)
06 11.06 С 2 10 км 9/3 600 м
[Cb cap Ac cast]
+11.6 +3.7 58 +11 +14 очень
холодно
1011.0 996.7
09 11.06 С 2 10 км 9/4 600 м
[Sc diur, vesp Ci fib]
+14.4 -1.1 34 +14 +22 холодно 1010.6 996.5
12 11.06 С 2 10 км 8/5 600 м
[Cb cap Ac cast]
+13.7 -2.0 34 +14 +16 очень
холодно
1011.1 996.9
15 11.06 З 2 10 км 8/3 600 м
[Sc diur, vesp Ac cast]
+13.4 -0.3 39 +13 +14 холодно 1011.3 997.0 +15.2
18 11.06 штиль 0 10 км 4/0
[Ci fib]
+9.3 +3.8 68 +9 +9 очень
холодно
1011.9 997.5
21 11.06 штиль 0 10 км 3/0
[Ci fib]
+6.9 +3.1 77 +6 +6 очень
холодно
1012.0 997.5
00 12.06 штиль 0 10 км 3/0
[Ac lent]
+4.8 +2.6 86 +4 +4 очень
холодно
1012.3 997.7
03 12.06 штиль 0 10 км 6/0
[Ac cast Ci fib]
+11.8 +4.2 60 +12 +14 прохладно 1012.2 997.9 +4.8
06 12.06 ЮЗ 4 10 км 8/0
[Ac cast Cc]
+15.6 +2.5 41 +15 +20 прохладно 1011.6 997.5
09 12.06 ЮЗ 4 10 км 9/3 600 м
[Sc Ac As Cc]
+17.5 +1.8 35 +17 +22 прохладно 1010.4 996.4
12 12.06 ЮЗ 5
{10}
10 км 9/5 600 м
[Sc Ac As]
+18.0 +6.2 46 +18 +19 прохладно 1009.0 995.1
15 12.06 ЮЗ 2 10 км в посл. час дождь 10/10 600 м
[Sc]
+15.8 +8.7 63 +16 +16 прохладно 1008.7 994.7 +18.8
18 12.06 ЮВ 1 10 км слабый дождь 10/5 300 м
[Sc As op]
+14.0 +9.6 75 +14 +14 прохладно 1007.7 993.6
21 12.06 Ю 1 10 км в посл. час дождь 9/9 300 м
[Sc diur, vesp]
+13.6 +9.6 77 +14 +14 по сезону 1005.3 991.2
00 13.06 ЮЗ 2 10 км {дождь} 10/0
[As op Cs]
+16.3 +7.8 57 +16 +16 тепло 1003.5 989.5
03 13.06 ЮЗ 2 10 км 9/6 600 м
[Sc Ac cast Cc]
+17.5 +7.3 51 +18 +19 тепло 1002.1 988.2 +13.5 0.3
06 13.06 ЮЗ 5-11
{12}
10 км 10/6 600 м
[Sc Ac trans]
+18.9 +6.9 46 +19 +20 по сезону 1001.7 987.9
09 13.06 ЮЗ 2
{11}
10 км слабый дождь 10/10 600 м
[Sc]
+15.2 +11.2 77 +15 +15 холодно 1002.0 988.0
12 13.06 ЮЗ 5
{12}
10 км слабый дождь 10/8 600 м
[Sc As op]
+15.5 +10.6 73 +14 +14 очень
холодно
1001.5 987.6
15 13.06 ЮЗ 3 10 км 10/8 600 м
[Sc Ac As]
+16.5 +12.0 75 +16 +16 прохладно 1001.1 987.2 +19.1 0.3
18 13.06 ЮЗ 4 10 км 10/8 600 м
[Sc As op]
+16.0 +12.4 79 +15 +15 прохладно 1001.6 987.7
21 13.06 СЗ 4
{10}
10 км 10/5 600 м
[Sc Ac As]
+14.0 +10.2 78 +13 +13 прохладно 1004.3 990.2
00 14.06 СЗ 2 10 км слабый дождь 10/10 600 м
[Sc]
+10.5 +8.8 89 +9 +9 холодно 1006.7 992.4
03 14.06 СЗ 3 10 км {дождь} 10/10 300 м
[Frnb]
+10.4 +7.3 81 +8 +8 очень
холодно
1009.1 994.8 +10.2
06 14.06 СЗ 3 10 км {дождь} 10/10 600 м
[Sc]
+11.3 +5.2 66 +10 +10 очень
холодно
1011.3 997.0
09 14.06 СЗ 3 10 км 9/9 600 м
[Sc]
+12.9 +5.1 59 +12 +13 очень
холодно
1012.4 998.1
12 14.06 СЗ 3 10 км 9/9 600 м
[Sc]
+15.2 +5.0 51 +15 +15 очень
холодно
1013.3 999.2
15 14.06 З 2 10 км 10/9 600 м
[Sc Ci sp]
+14.8 +4.7 51 +15 +15 холодно 1014.0 999.9 +16.4
18 14.06 С 2 10 км 9/9 600 м
[Sc]
+12.9 +5.0 59 +12 +12 холодно 1014.9 1000.7
21 14.06 СЗ 1 10 км 6/6 600 м
[Sc]
+11.2 +5.1 66 +11 +11 прохладно 1016.1 1001.7
00 15.06 С 2 10 км 10/0
[Cs]
+9.0 +4.7 74 +7 +7 холодно 1017.1 1002.6
03 15.06 С 2 10 км 10/0
[Cs]
+10.0 +5.1 72 +9 +11 очень
холодно
1018.0 1003.5 +8.5
06 15.06 С 2 10 км 8/6 600 м
[Sc diur, vesp Ci fib]
+13.0 +2.8 50 +13 +17 холодно 1018.0 1003.7
09 15.06 З 3 10 км 6/6 600 м
[Sc diur, vesp]
+14.3 +0.8 40 +14 +19 холодно 1018.0 1003.8
12 15.06 С 3 10 км 5/5 600 м
[Sc diur, vesp]
+14.7 -0.7 35 +14 +18 очень
холодно
1017.7 1003.5
15 15.06 С 2 10 км 9/9 600 м
[Sc diur, vesp]
+14.3 -0.5 36 +14 +14 холодно 1018.2 1004.0 +16.1
18 15.06 штиль 0 10 км ясно +11.8 +1.0 47 +12 +12 холодно 1018.5 1004.1
21 15.06 штиль 0 10 км ясно +7.4 +3.5 76 +7 +7 очень
холодно
1018.8 1004.2
00 16.06 штиль 0 10 км ясно +7.3 +5.2 87 +6 +6 очень
холодно
1018.9 1004.3
03 16.06 З 2 10 км ясно +11.3 +4.7 64 +10 +13 холодно 1018.9 1004.4 +6.6
06 16.06 С 2 10 км 3/3 600 м
[Sc diur, vesp Ci fib]
+16.1 +0.6 35 +16 +24 прохладно 1018.6 1004.4
09 16.06 СЗ 3 10 км 3/1 600 м
[Cu hum Ac cuf Ci fib]
+18.3 +0.6 30 +19 +29 по сезону 1017.7 1003.6
12 16.06 СЗ 3 10 км 1/0
[Ac cast Ci fib]
+19.4 +0.7 29 +20 +28 прохладно 1017.4 1003.4
15 16.06 СЗ 2 10 км ясно +19.6 +1.7 30 +20 +22 по сезону 1017.1 1003.1 +19.9
18 16.06 СЗ 1 10 км ясно +16.8 +2.3 38 +18 +18 по сезону 1017.7 1003.6
21 16.06 штиль 0 10 км ясно +11.4 +5.5 67 +11 +11 холодно 1017.9 1003.5
00 17.06 СЗ 1 10 км 6/0
[Cc]
+11.7 +3.9 59 +12 +12 прохладно 1017.7 1003.3
03 17.06 З 2 10 км 6/0
[Cc]
+13.2 +5.0 58 +13 +15 прохладно 1017.4 1003.1 +10.2
06 17.06 З 2 10 км ясно +18.8 +5.5 42 +20 +31 по сезону 1016.2 1002.2
09 17.06 С 3
{10}
10 км ясно +21.7 +2.2 28 +22 +35 комфорт 1015.0 1001.1
12 17.06 СЗ 3 10 км ясно +23.3 +2.3 25 +23 +31 комфорт 1014.1 1000.4
15 17.06 С 2 10 км ясно +22.9 +3.7 29 +23 +25 комфорт 1013.8 1000.0 +23.5
18 17.06 С 1 10 км ясно +19.5 +5.4 40 +21 +21 комфорт 1014.5 1000.6
21 17.06 штиль 0 10 км ясно +14.7 +7.5 62 +15 +15 по сезону 1014.5 1000.3
00 18.06 СЗ 1 10 км ясно +13.9 +6.1 59 +14 +14 по сезону 1014.4 1000.2

 

Местоположение метеостанции Казань (Татарстан, Россия): широта 55.73 долгота 49.20 высота над уровнем моря 119 м.

В архиве по умолчанию представлена погода в Казани за последнюю неделю. Архивные данные за месяц целиком и за предыдущие месяцы, начиная с января 2011 года, Вы можете получить, выбрав интересующий диапазон дат из раскрывающегося списка и нажав кнопку "Ввод!".


*Определитесь, кто Вы:
робот инопланетянин человек

Внимание! Время в таблицах - всемирное. Для получения местного времени необходимо прибавить поправку, которая в Казани равна 3 ч.

Смотрите также архив погоды в соседних городах и на ближайших метеорологических станциях:

Погода в Лаишево (Татарстан, Россия) (40 км)
Погода в Вязовых (Татарстан, Россия) (44 км)
Погода в Арске (Татарстан, Россия) (57 км)
Погода в Камском Устье (Татарстан, Россия) (58 км)
Погода в Больших Кайбицах (Татарстан, Россия) (74 км)
Погода в Алексеевском (Татарстан, Россия) (74 км)
Погода в Морках (Марий-Эл, Россия) (79 км)
Погода в Богатых Сабах (Татарстан, Россия) (84 км)
Погода в Тетюшах (Татарстан, Россия) (91 км)
Погода в Чистополе (Татарстан, Россия) (102 км)

Пояснения к столбцам:

Ветер - указаны скорость ветра в м/с - средняя за 10 мин, порывы в срок и между сроками (в фигурных скобках) и направление, откуда дует ветер: С - северный, СВ - северо-восточный, В - восточный, ЮВ - юго-восточный, Ю - южный, ЮЗ - юго-западный, З - западный, СЗ - северо-западный.
Видимость - горизонтальная дальность видимости в метрах или километрах. При видимости от 1 до 10 км при отсутствии осадков обычно наблюдается дымка, при ухудшении видимости до 1 км и менее - туман. В сухую погоду видимость может ухудшаться дымом, пылью или мглою.
Явления - указаны атмосферные явления, наблюдавшиеся в срок или в последний час перед сроком; фигурными скобками обозначены явления, наблюдавшиеся между сроками (за 1-3 часа до срока); квадратными скобками обозначены град или гололедные отложения с указанием их диаметра в мм.
Облачность - указаны через наклонную черту общая и нижняя облачность в баллах и высота нижней границы облаков в метрах; квадратными скобками обозначены формы облаков: Ci - перистые, Cs - перисто-слоистые, Cc - перисто-кучевые, Ac - высококучевые, As - высокослоистые, Sc - слоисто-кучевые, Ns - слоисто-дождевые, Cu - кучевые, Cb - кучево-дождевые. Подробнее классификацию облаков см. в Атласе облаков (PDF).
T - Температура воздуха - температура, измеренная на высоте 2 м над землей.
Td - Температура точки росы - температура, при понижении до которой содержащийся в воздухе водяной пар достигнет насыщения.
f - Относительная влажность воздуха - влажноcть воздуха, измеренная на высоте 2 м над землей.
Te - Эффективная температура - температура, которую ощущает одетый по сезону человек в тени. Характеристика душности погоды. При расчете учитывается влияние влажности воздуха и скорости ветра на теплоощущения человека.
Tes - Эффективная температура на солнце - температура, которую ощущает человек, с поправкой на солнечный нагрев. Характеристика знойности погоды. Зависит от высоты солнца над горизонтом, облачности и скорости ветра. Ночью, в пасмурную погоду, а также при ветре 12 м/с и более поправка равна нулю.
P - Атмосферное давление - приведенное к уровню моря атмосферное давление.
Po - Атмосферное давление - измеренное на уровне метеостанции атмосферное давление.
Tmin - Минимальная температура - минимум температуры воздуха на высоте 2 м над землей.
Tmax - Максимальная температура - максимум температуры воздуха на высоте 2 м над землей.
R - Количество осадков - Количество выпавших осадков за период времени, мм. При наведении курсора мыши на число - период времени, за который выпало указанное количество осадков.
R24 - Количество осадков - Количество выпавших осадков за 24 часа, мм.
S - Снежный покров - Высота снежного покрова, см. При наведении курсора мыши на число - состояние снежного покрова и степень покрытия местности в баллах.